Regional Weather Roundup
Issued by NWS

Home | Current Version | Previous Version | Text Only | Print | Product List | Glossary Off
Versions: 1 2 3 4 5 6 7 8 9 10 11 12 13 14 15 16 17 18 19 20 21 22 23 24 25 26 27 28 29 30 31 32 33 34 35 36 37 38 39 40 41 42 43 44 45 46 47 48 49 50

000
ASUS45 KABQ 260401
RWRNM
NEW MEXICO REGIONAL WEATHER ROUNDUP
NATIONAL WEATHER SERVICE ALBUQUERQUE NM
1000 PM MDT TUE APR 25 2017

NOTE: "FAIR" MEANS FEW OR NO CLOUDS BELOW 12,000 FEET AGL WITH NO
       SIGNIFICANT WEATHER OR OBSTRUCTIONS TO VISION.

      THIS PRODUCT IS RELEASED AS TWO VERSIONS.  ONE VERSION NEAR
      THE TOP OF THE HOUR CONTAINING PRELIMINARY DATA FROM ALBUQUERQUE
      AND OTHER STATIONS.  A FINAL VERSION WITH ADDITIONAL DATA IS
      ISSUED ABOUT 10 MINUTES AFTER THE HOUR.

NMZ501-503-504-510>518-260500-
NORTHWEST PLATEAU/NORTHCENTRAL MOUNTAINS

CITY           SKY/WX    TMP DP  RH WIND       PRES   REMARKS
FARMINGTON     FAIR      44  27  51 W12       29.80R
LOS ALAMOS     FAIR      41  24  50 E6        29.77R
SANTA FE       FAIR      39  32  76 W3        29.74R
TAOS             N/A     32  25  74 N7        29.78R WCI  26
ANGEL FIRE     LGT SNOW  33  29  86 W6        29.77R WCI  27

$$
NMZ402-403-502-505>509-260500-
WESTCENTRAL MOUNTAINS/SOUTHWEST MOUNTAINS

CITY           SKY/WX    TMP DP  RH WIND       PRES   REMARKS
GALLUP         FAIR      43  23  45 NW9       29.88R
GRANTS         MOCLDY    43  23  45 NW13G25   29.86R
SILVER CITY    FAIR      58  30  34 W24G33    29.80R

$$
NMZ407-409-411-412-260500-
SOUTHERN DESERTS

CITY           SKY/WX    TMP DP  RH WIND       PRES   REMARKS
DEMING         FAIR      65  33  30 NW17G30   29.75R
LAS CRUCES     FAIR      67  32  27 W18G32    29.73R
HOLLOMAN AFB   FAIR      68  31  25 W18       29.70R
ALAMOGORDO     FAIR      68  28  22 W13       29.68R
T OR C         FAIR      59  35  40 NW26G40   29.71R

$$
NMZ519>523-260500-
CENTRAL VALLEYS/CENTRAL HIGHLANDS

CITY           SKY/WX    TMP DP  RH WIND       PRES   REMARKS
ALBUQUERQUE    MOCLDY    48  36  63 W8        29.79R
DOUBLE EAGLE   CLOUDY    45  30  57 W6        29.80R
MORIARTY ARPT  FAIR      43  35  75 W5        29.79R
CLINES CORNERS FAIR      37  31  78 W15       29.77R WCI  28
BELEN          FAIR      46  37  71 N9        29.80R
SOCORRO        LGT RAIN  48  40  74 N12G23    29.81R

$$
NMZ524>526-539-540-260500-
SOUTHCENTRAL MOUNTAINS

CITY           SKY/WX    TMP DP  RH WIND       PRES   REMARKS
RUIDOSO        NOT AVBL

$$
NMZ527>531-260500-
NORTHEAST HIGHLANDS/NORTHEAST PLAINS

CITY           SKY/WX    TMP DP  RH WIND       PRES   REMARKS
LAS VEGAS      FAIR      41  22  46 NW12      29.69R
RATON          LGT RAIN  40  34  79 N16G29    29.68R WCI  31
CLAYTON        CLOUDY    41  40  96 N20       29.67S

$$
NMZ532>537-260500-
EASTCENTRAL PLAINS

CITY           SKY/WX    TMP DP  RH WIND       PRES   REMARKS
SANTA ROSA     FAIR      51  35  52 CALM      29.66S
TUCUMCARI      MOCLDY    58  43  57 NE12      29.59R
CANNON AFB     LGT RAIN  57  40  52 NW18G24   29.64R
CLOVIS AIRPORT CLOUDY    55  41  58 W25G31    29.66R

$$
NMZ028-029-538-260500-
SOUTHEAST PLAINS

CITY           SKY/WX    TMP DP  RH WIND       PRES   REMARKS
ROSWELL        MOCLDY    60  40  47 N28G41      N/A
ARTESIA        FAIR      70  37  30 N15G22    29.60R
CARLSBAD       FAIR      76  31  19 W10       29.56R
HOBBS          FAIR      75  28  17 W21       29.57R


$$



USA.gov is the U.S. government's official web portal to all federal, state and local government web resources and services.